Regional Weather Roundup
Issued by NWS Green Bay, WI

Home | Current Version | Previous Version | Text Only | Print | Product List | Glossary On
Versions: 1 2 3 4 5 6 7 8 9 10 11 12 13 14 15 16 17 18 19 20 21 22 23 24 25 26 27 28 29 30 31 32 33 34 35 36 37 38 39 40 41 42 43 44 45 46 47 48 49 50
000
ASUS43 KGRB 271311
RWRGRB

NORTH-CENTRAL AND NORTHEAST WISCONSIN REGIONAL WEATHER ROUNDUP
NATIONAL WEATHER SERVICE GREEN BAY WI
800 AM CDT SAT AUG 27 2016

WIZ005-009-010>012-018-019-271400-
NORTH CENTRAL WISCONSIN

CITY           SKY/WX    TMP DP  RH WIND       PRES   REMARKS
IRONWOOD       CLOUDY    59  52  77 SE6       30.13F
MANITOWISH WTR CLOUDY    58  56  96 SE5       30.14F
ARBOR VITAE    CLOUDY    59  55  87 SE6       30.15S
EAGLE RIVER    MOSUNNY   57  56  99 CALM      30.15S
LAND O LAKES   CLOUDY    57  55  92 CALM      30.16F
RHINELANDER    CLOUDY    59  57  93 CALM      30.16R
PHILLIPS       CLOUDY    56  55  95 E3        30.12F
ANTIGO         CLOUDY    57  57  98 CALM      30.16R
TOMAHAWK       CLOUDY    57  55  91 SE3       30.15R
MERRILL        CLOUDY    57  57 100 CALM      30.15R
$$

WIZ013-073-271400-
NORTHEAST WISCONSIN

CITY           SKY/WX    TMP DP  RH WIND       PRES   REMARKS
IRON MOUNTAIN  CLOUDY    59  56  89 CALM      30.14F
MARINETTE        N/A    N/A N/A N/A MISG        N/A
OCONTO         CLOUDY    62  60  94 CALM      30.14R
$$

WIZ017-030-035>037-045-271400-
CENTRAL WISCONSIN

CITY           SKY/WX    TMP DP  RH WIND       PRES   REMARKS
MEDFORD        CLOUDY    58  58 100 SE8       30.12F
WAUSAU         PTSUNNY   59  58  96 E8        30.13R
MOSINEE        PTSUNNY   57  57 100 E6        30.14S
MARSHFIELD     CLOUDY    60  57  89 E5        30.12R
WISC RAPIDS    CLOUDY    61  59  93 E6        30.13R
STEVENS POINT  CLOUDY    58  57  96 E5        30.13S
WAUPACA        RAIN      62  62  98 E6        30.13F
SHAWANO        CLOUDY    63  60  91 SE3       30.14S
CLINTONVILLE   RAIN      59  59 100 E3        30.14S
WAUTOMA        LGT RAIN  61  61 100 E5        30.13S
$$

WIZ038-039-048-051-271400-
FOX VALLEY

CITY           SKY/WX    TMP DP  RH WIND       PRES   REMARKS
NWS GREEN BAY  RAIN      63  62  97 CALM      30.14R
APPLETON       LGT RAIN  63  61  94 E6        30.14R
OSHKOSH        LGT RAIN  62  59  90 E5        30.13R FOG
FOND DU LAC    RAIN      62  61  96 E7        30.13F
$$

WIZ022-050-052-271400-
EAST CENTRAL WISCONSIN

CITY           SKY/WX    TMP DP  RH WIND       PRES   REMARKS
EPHRAIM        FAIR      62  60  93 CALM      30.14S
WASHINGTON ISL NOT AVBL
STURGEON BAY   LGT RAIN  63  60  90 SE3       30.15S
MANITOWOC      RAIN      61  58  90 SE5       30.16R
SHEBOYGAN      LGT RAIN  61  59  93 E7        30.14R
$$

LMZ563-521-522-541>543-271400-
LAKESHORE

STATION/POSITION TIME  TEMP    WIND        PRES    VSBY  WAVE
                       AIR SEA DIR/SP/G                  HT/PER
                 (UTC) (F)     (DEG/KT/KT) (MB)    (MI)  (FT/S)
SHEBOYGAN LKSHOR 1300   61      80/ 11/ 11 1020.3R
KEWAUNEE LKSHORE 1200   60      20/  2/  4 1019.7F
N MID LAKE BUOY  1250   67 70  140/ 12/ 14 1020.1F         1/ 2
S GREEN BAY BUOY 1200   66 71   70/ 10/ 12 1019.7
SISTER BAY LKSHO 1207   63        CALM       N/A
CHAMBERS ISLAND  1200   62        CALM     1020.7S
MENOMINEE LKSHOR 1200   64      10/  4/  5 1019.8R
$$




USA.gov is the U.S. government's official web portal to all federal, state and local government web resources and services.